Time,TemperatureF,DewpointF,PressureIn,WindDirection,WindDirectionDegrees,WindSpeedMPH,WindSpeedGustMPH,Humidity,HourlyPrecipIn,Conditions,Clouds,dailyrainin,SoftwareType,DateUTC
2013-09-21 00:23:00,51.0,51.0,-100.00,WNW,300,6.0,9.0,99,0.00,,,-99.99,,2013-09-21 05:23:00,
2013-09-21 01:22:00,50.0,50.0,-100.00,NW,315,6.0,9.0,99,0.00,,,-99.99,,2013-09-21 06:22:00,
2013-09-21 01:42:00,51.0,51.0,-100.00,NW,305,6.0,10.0,99,0.00,,,-99.99,,2013-09-21 06:42:00,
2013-09-21 02:11:00,49.0,49.0,-100.00,WNW,300,4.0,6.0,99,0.00,,,-99.99,,2013-09-21 07:11:00,
2013-09-21 02:42:00,47.0,47.0,-100.00,WNW,300,4.0,6.0,99,0.00,,,-99.99,,2013-09-21 07:42:00,
2013-09-21 03:13:00,47.0,47.0,-100.00,WNW,295,6.0,7.0,99,0.00,,,-99.99,,2013-09-21 08:13:00,
2013-09-21 03:42:00,46.0,46.0,-100.00,WNW,300,3.0,5.0,99,0.00,,,-99.99,,2013-09-21 08:42:00,
2013-09-21 03:52:00,46.0,46.0,-100.00,WNW,300,3.0,5.0,99,0.00,,,-99.99,,2013-09-21 08:52:00,
2013-09-21 04:01:00,46.0,46.0,-100.00,WNW,300,3.0,5.0,99,0.00,,,-99.99,,2013-09-21 09:01:00,
2013-09-21 04:11:00,46.0,46.0,-100.00,WNW,300,3.0,5.0,99,0.00,,,-99.99,,2013-09-21 09:11:00,
2013-09-21 05:23:00,44.0,44.0,-100.00,WNW,295,3.0,4.0,99,0.00,,,-99.99,,2013-09-21 10:23:00,
2013-09-21 05:42:00,44.0,44.0,-100.00,NW,325,1.0,4.0,99,0.00,,,-99.99,,2013-09-21 10:42:00,
2013-09-21 06:11:00,44.0,44.0,-100.00,NNW,335,5.0,6.0,99,0.00,,,-99.99,,2013-09-21 11:11:00,
2013-09-21 06:42:00,44.0,44.0,-100.00,NNW,335,4.0,5.0,99,0.00,,,-99.99,,2013-09-21 11:42:00,
2013-09-21 07:21:00,43.0,43.0,-100.00,NW,315,6.0,6.0,99,0.00,,,-99.99,,2013-09-21 12:21:00,
2013-09-21 07:42:00,44.0,44.0,-100.00,NNW,330,4.0,6.0,99,0.00,,,-99.99,,2013-09-21 12:42:00,
2013-09-21 22:22:00,47.0,47.0,-100.00,South,180,0.0,1.0,99,0.00,,,-99.99,,2013-09-22 03:22:00,
2013-09-21 22:34:00,47.0,47.0,-100.00,South,180,0.0,1.0,99,0.00,,,-99.99,,2013-09-22 03:34:00,
2013-09-21 23:02:00,-999.0,-99.9,-100.00,SSW,210,0.0,2.0,-999,-99.99,,,-99.99,,2013-09-22 04:02:00,
2013-09-21 23:14:00,46.0,46.0,-100.00,SSW,210,0.0,2.0,99,0.00,,,-99.99,,2013-09-22 04:14:00,